timestamp,surface_pressure_avg,surface_temp_avg,battery_voltage,lat,long
2018-05-13 00:00:00+00:00,313.6981,5.6,13.21,47.84626,-54.09684
2018-05-13 00:10:00+00:00,303.8613,5.59,13.13,47.84626,-54.09684
2018-05-13 00:20:00+00:00,295.0914,5.6,13.13,47.84626,-54.09684
2018-05-13 00:30:00+00:00,285.1981,5.6,13.13,47.84626,-54.09684
2018-05-13 00:40:00+00:00,275.7514,5.7,13.13,47.84626,-54.09684
2018-05-13 00:50:00+00:00,268.1797,5.9,13.13,47.84626,-54.09684
2018-05-13 01:00:00+00:00,264.4497,6.02,13.05,47.84626,-54.09684
2018-05-13 01:10:00+00:00,261.4497,6.1,13.05,47.84626,-54.09684
2018-05-13 01:20:00+00:00,252.9597,6.1,13.05,47.84626,-54.09684
2018-05-13 01:30:00+00:00,249.9998,6.15,13.05,47.84626,-54.09684
2018-05-13 01:40:00+00:00,248.298,6.18,13.05,47.84626,-54.09684
2018-05-13 01:50:00+00:00,244.3381,6.1,13.05,47.84626,-54.09684
2018-05-13 02:00:00+00:00,234.4898,6.1,13.05,47.84626,-54.09684
2018-05-13 02:10:00+00:00,232.3897,6.1,12.97,47.84626,-54.09684
2018-05-13 02:20:00+00:00,225.4198,6.0,13.05,47.84626,-54.09684
2018-05-13 02:30:00+00:00,209.2881,6.0,13.05,47.84626,-54.09684
2018-05-13 02:40:00+00:00,205.3764,6.0,13.05,47.84626,-54.09684
2018-05-13 02:50:00+00:00,209.3131,6.0,13.05,47.84626,-54.09684
2018-05-13 03:00:00+00:00,202.9864,6.0,12.97,47.84626,-54.09684
2018-05-13 03:10:00+00:00,197.1364,6.07,12.97,47.84626,-54.09684
2018-05-13 03:20:00+00:00,201.4131,6.05,12.97,47.84626,-54.09684
2018-05-13 03:30:00+00:00,204.3248,6.03,12.97,47.84626,-54.09684
2018-05-13 03:40:00+00:00,201.6731,6.0,13.05,47.84626,-54.09684
2018-05-13 03:50:00+00:00,200.6631,6.0,13.05,47.84626,-54.09684
2018-05-13 04:00:00+00:00,204.7831,6.0,12.97,47.84626,-54.09684
2018-05-13 04:10:00+00:00,205.0281,6.0,12.89,47.84626,-54.09684
2018-05-13 04:20:00+00:00,199.1397,6.0,12.97,47.84626,-54.09684
2018-05-13 04:30:00+00:00,199.5314,6.05,12.97,47.84626,-54.09684
2018-05-13 04:40:00+00:00,201.2115,6.0,12.97,47.84626,-54.09684
2018-05-13 04:50:00+00:00,200.1015,6.0,13.05,47.84626,-54.09684
2018-05-13 05:00:00+00:00,203.8315,6.0,12.97,47.84626,-54.09684
2018-05-13 05:10:00+00:00,212.5814,6.0,12.89,47.84626,-54.09684
2018-05-13 05:20:00+00:00,218.9248,6.0,12.97,47.84626,-54.09684
2018-05-13 05:30:00+00:00,220.4081,6.0,12.97,47.84626,-54.09684
2018-05-13 05:40:00+00:00,225.6781,6.0,12.97,47.84626,-54.09684
2018-05-13 05:50:00+00:00,233.6548,6.0,12.97,47.84626,-54.09684
2018-05-13 06:00:00+00:00,239.7464,6.0,12.97,47.84626,-54.09684
2018-05-13 06:10:00+00:00,241.6781,6.0,12.89,47.84626,-54.09684
2018-05-13 06:20:00+00:00,244.6648,6.0,12.97,47.84626,-54.09684
2018-05-13 06:30:00+00:00,248.7715,5.94,12.97,47.84626,-54.09684
2018-05-13 06:40:00+00:00,250.6797,5.93,12.97,47.84626,-54.09684
2018-05-13 06:50:00+00:00,252.1264,5.91,12.97,47.84626,-54.09684
2018-05-13 07:00:00+00:00,259.0631,5.9,12.89,47.84626,-54.09684
2018-05-13 07:10:00+00:00,272.4314,5.82,12.89,47.84626,-54.09684
2018-05-13 07:20:00+00:00,276.1747,5.8,12.97,47.84626,-54.09684
2018-05-13 07:30:00+00:00,281.0414,5.89,12.97,47.84626,-54.09684
2018-05-13 07:40:00+00:00,294.6497,5.8,12.97,47.84626,-54.09684
2018-05-13 07:50:00+00:00,308.1697,5.81,12.97,47.84626,-54.09684
2018-05-13 08:00:00+00:00,308.0897,5.9,12.89,47.84626,-54.09684
2018-05-13 08:10:00+00:00,310.303,5.9,12.81,47.84626,-54.09684
2018-05-13 08:20:00+00:00,319.0914,5.7,12.89,47.84626,-54.09684
2018-05-13 08:30:00+00:00,322.3264,5.84,12.97,47.84626,-54.09684
2018-05-13 08:40:00+00:00,319.0746,5.9,12.97,47.84626,-54.09684
2018-05-13 08:50:00+00:00,326.6413,5.9,13.05,47.84626,-54.09684
2018-05-13 09:00:00+00:00,333.133,5.8,13.05,47.84626,-54.09684
2018-05-13 09:10:00+00:00,329.7446,5.77,13.05,47.84626,-54.09684
2018-05-13 09:20:00+00:00,329.9713,5.8,13.29,47.84626,-54.09684
2018-05-13 09:30:00+00:00,335.918,5.61,13.44,47.84626,-54.09684
2018-05-13 09:40:00+00:00,340.128,5.88,13.68,47.84626,-54.09684
2018-05-13 09:50:00+00:00,336.7029,5.98,14.0,47.84626,-54.09684
2018-05-13 10:00:00+00:00,338.7163,6.0,14.24,47.84626,-54.09684
2018-05-13 10:10:00+00:00,340.2762,5.9,14.32,47.84626,-54.09684
2018-05-13 10:20:00+00:00,337.9529,6.0,15.99,47.84626,-54.09684
2018-05-13 10:30:00+00:00,331.8362,6.0,15.83,47.84626,-54.09684
2018-05-13 10:40:00+00:00,332.713,5.68,15.99,47.84626,-54.09684
2018-05-13 10:50:00+00:00,330.148,5.84,15.75,47.84626,-54.09684
2018-05-13 11:00:00+00:00,324.263,5.99,14.72,47.84626,-54.09684
2018-05-13 11:10:00+00:00,322.6013,5.7,14.64,47.84626,-54.09684
2018-05-13 11:20:00+00:00,323.363,5.9,15.6,47.84626,-54.09684
2018-05-13 11:30:00+00:00,317.558,5.99,14.96,47.84626,-54.09684
2018-05-13 11:40:00+00:00,310.2681,6.01,15.27,47.84626,-54.09684
2018-05-13 11:50:00+00:00,305.0447,6.09,15.2,47.84626,-54.09684
2018-05-13 12:00:00+00:00,302.5096,6.1,14.72,47.84626,-54.09684
2018-05-13 12:10:00+00:00,295.258,6.1,14.64,47.84626,-54.09684
2018-05-13 12:20:00+00:00,284.6563,6.1,15.35,47.84626,-54.09684
2018-05-13 12:30:00+00:00,277.9897,6.1,14.96,47.84626,-54.09684
2018-05-13 12:40:00+00:00,271.6164,6.1,15.2,47.84626,-54.09684
2018-05-13 12:50:00+00:00,261.9447,6.1,15.11,47.84626,-54.09684
2018-05-13 13:00:00+00:00,251.1381,6.1,14.72,47.84626,-54.09684
2018-05-13 13:10:00+00:00,246.6697,6.09,14.64,47.84626,-54.09684
2018-05-13 13:20:00+00:00,243.9665,6.08,15.2,47.84626,-54.09684
2018-05-13 13:30:00+00:00,239.6464,6.02,14.64,47.84626,-54.09684
2018-05-13 13:40:00+00:00,229.7531,6.0,14.72,47.84626,-54.09684
2018-05-13 13:50:00+00:00,222.7648,6.0,14.64,47.84626,-54.09684
2018-05-13 14:00:00+00:00,219.0481,6.0,14.96,47.84626,-54.09684
2018-05-13 14:10:00+00:00,214.2748,6.0,14.64,47.84626,-54.09684
2018-05-13 14:20:00+00:00,206.5081,5.99,14.4,47.84626,-54.09684
2018-05-13 14:30:00+00:00,199.8497,5.97,14.8,47.84626,-54.09684
2018-05-13 14:40:00+00:00,195.8181,5.9,14.88,47.84626,-54.09684
2018-05-13 14:50:00+00:00,191.9881,5.92,14.96,47.84626,-54.09684
2018-05-13 15:00:00+00:00,186.8865,5.9,14.48,47.84626,-54.09684
2018-05-13 15:10:00+00:00,180.5931,5.89,14.32,47.84626,-54.09684
2018-05-13 15:20:00+00:00,177.9081,5.86,14.56,47.84626,-54.09684
2018-05-13 15:30:00+00:00,176.2931,5.8,14.48,47.84626,-54.09684
2018-05-13 15:40:00+00:00,174.8748,5.8,14.32,47.84626,-54.09684
2018-05-13 15:50:00+00:00,176.6481,5.7,14.16,47.84626,-54.09684
2018-05-13 16:00:00+00:00,179.1682,5.6,14.48,47.84626,-54.09684
2018-05-13 16:10:00+00:00,180.2014,5.6,14.48,47.84626,-54.09684
2018-05-13 16:20:00+00:00,182.3498,5.7,14.4,47.84626,-54.09684
2018-05-13 16:30:00+00:00,187.2065,5.87,14.8,47.84626,-54.09684
2018-05-13 16:40:00+00:00,187.8582,6.04,14.56,47.84626,-54.09684
2018-05-13 16:50:00+00:00,188.9148,6.12,14.48,47.84626,-54.09684
2018-05-13 17:00:00+00:00,193.3964,6.11,14.32,47.84626,-54.09684
2018-05-13 17:10:00+00:00,198.8865,6.28,14.24,47.84626,-54.09684
2018-05-13 17:20:00+00:00,203.7215,6.45,14.32,47.84626,-54.09684
2018-05-13 17:30:00+00:00,203.6864,6.5,14.32,47.84626,-54.09684
2018-05-13 17:40:00+00:00,205.8331,6.54,14.32,47.84626,-54.09684
2018-05-13 17:50:00+00:00,213.6697,6.5,14.24,47.84626,-54.09684
2018-05-13 18:00:00+00:00,219.8714,6.53,14.16,47.84626,-54.09684
2018-05-13 18:10:00+00:00,223.9764,6.64,14.0,47.84626,-54.09684
2018-05-13 18:20:00+00:00,232.4731,6.7,14.08,47.84626,-54.09684
2018-05-13 18:30:00+00:00,242.0697,6.7,14.08,47.84626,-54.09684
2018-05-13 18:40:00+00:00,245.0314,6.74,14.0,47.84626,-54.09684
2018-05-13 18:50:00+00:00,244.4615,6.8,14.08,47.84626,-54.09684
2018-05-13 19:00:00+00:00,251.3464,6.8,14.0,47.84626,-54.09684
2018-05-13 19:10:00+00:00,259.8081,6.77,13.92,47.84626,-54.09684
2018-05-13 19:20:00+00:00,261.6548,6.8,14.0,47.84626,-54.09684
2018-05-13 19:30:00+00:00,259.9914,6.8,14.0,47.84626,-54.09684
2018-05-13 19:40:00+00:00,268.8247,6.8,14.0,47.84626,-54.09684
2018-05-13 19:50:00+00:00,282.1964,6.8,14.0,47.84626,-54.09684
2018-05-13 20:00:00+00:00,290.2397,6.8,13.92,47.84626,-54.09684
2018-05-13 20:10:00+00:00,294.1631,6.84,13.84,47.84626,-54.09684
2018-05-13 20:20:00+00:00,302.4747,6.8,13.84,47.84626,-54.09684
2018-05-13 20:30:00+00:00,309.663,6.7,13.84,47.84626,-54.09684
2018-05-13 20:40:00+00:00,313.5347,6.5,13.92,47.84626,-54.09684
2018-05-13 20:50:00+00:00,315.7613,6.4,13.92,47.84626,-54.09684
2018-05-13 21:00:00+00:00,321.4396,6.47,13.84,47.84626,-54.09684
2018-05-13 21:10:00+00:00,324.0563,6.46,13.68,47.84626,-54.09684
2018-05-13 21:20:00+00:00,326.5246,6.49,13.76,47.84626,-54.09684
2018-05-13 21:30:00+00:00,332.5279,6.43,13.76,47.84626,-54.09684
2018-05-13 21:40:00+00:00,339.6613,6.4,13.76,47.84626,-54.09684
2018-05-13 21:50:00+00:00,341.278,6.4,13.68,47.84626,-54.09684
2018-05-13 22:00:00+00:00,345.6713,6.4,13.6,47.84626,-54.09684
2018-05-13 22:10:00+00:00,353.4963,6.41,13.53,47.84626,-54.09684
2018-05-13 22:20:00+00:00,356.7229,6.58,13.53,47.84626,-54.09684
2018-05-13 22:30:00+00:00,357.0696,6.66,13.53,47.84626,-54.09684
2018-05-13 22:40:00+00:00,362.888,6.68,13.44,47.84626,-54.09684
2018-05-13 22:50:00+00:00,362.3162,6.68,13.44,47.84626,-54.09684
2018-05-13 23:00:00+00:00,353.603,6.67,13.37,47.84626,-54.09684
2018-05-13 23:10:00+00:00,350.2247,6.67,13.29,47.84626,-54.09684
2018-05-13 23:20:00+00:00,353.3829,6.68,13.29,47.84626,-54.09684
2018-05-13 23:30:00+00:00,350.923,6.68,13.21,47.84626,-54.09684
2018-05-13 23:40:00+00:00,343.8229,6.62,13.21,47.84626,-54.09684
2018-05-13 23:50:00+00:00,341.3813,6.61,13.21,47.84626,-54.09684
